Radiation Dose at Monitoring Post of Fukushima Daini Nuclear Power Station
Date,Time,MP-1(microSv/h),MP-2(microSv/h),MP-3(microSv/h),MP-4(microSv/h),MP-5(microSv/h),MP-6(microSv/h),MP-7(microSv/h),Wind Direction,Wind Velocity(m/s),Rain
2022/02/06,00:00,0.161,0.149,0.234,0.225,0.227,0.127,0.082,northwest,0.8,No
2022/02/06,00:10,0.162,0.148,0.233,0.225,0.227,0.127,0.081,northwest,0.5,No
2022/02/06,00:20,0.161,0.148,0.233,0.226,0.226,0.127,0.081,west-northwest,1.4,No
2022/02/06,00:30,0.162,0.149,0.234,0.225,0.227,0.128,0.081,west,1.0,No
2022/02/06,00:40,0.162,0.149,0.236,0.226,0.226,0.128,0.081,southwest,1.3,No
2022/02/06,00:50,0.161,0.148,0.233,0.227,0.225,0.128,0.081,west-southwest,1.3,No
2022/02/06,01:00,0.161,0.149,0.234,0.226,0.227,0.128,0.081,west-southwest,1.3,No
2022/02/06,01:10,0.161,0.148,0.235,0.225,0.226,0.128,0.081,-,CALM,No
2022/02/06,01:20,0.161,0.149,0.234,0.225,0.226,0.127,0.080,-,CALM,No
2022/02/06,01:30,0.161,0.148,0.234,0.226,0.227,0.127,0.081,west-southwest,1.0,No
2022/02/06,01:40,0.162,0.148,0.234,0.225,0.226,0.128,0.081,west-southwest,0.8,No
2022/02/06,01:50,0.161,0.149,0.235,0.225,0.226,0.128,0.082,west-southwest,1.1,No
2022/02/06,02:00,0.161,0.149,0.233,0.226,0.226,0.127,0.081,west-southwest,1.6,No
2022/02/06,02:10,0.162,0.148,0.234,0.226,0.225,0.128,0.081,west-southwest,1.8,No
2022/02/06,02:20,0.163,0.149,0.234,0.225,0.227,0.128,0.081,west-southwest,3.0,No
2022/02/06,02:30,0.161,0.149,0.234,0.226,0.227,0.127,0.081,west-southwest,3.5,No
2022/02/06,02:40,0.161,0.148,0.234,0.225,0.227,0.127,0.082,west-southwest,3.5,No
2022/02/06,02:50,0.162,0.149,0.233,0.227,0.226,0.128,0.080,west-southwest,4.9,No
2022/02/06,03:00,0.161,0.149,0.235,0.224,0.225,0.127,0.081,west,4.4,No
2022/02/06,03:10,0.161,0.148,0.234,0.226,0.225,0.127,0.081,west,4.1,No
2022/02/06,03:20,0.160,0.148,0.234,0.225,0.225,0.128,0.081,west,2.7,No
2022/02/06,03:30,0.161,0.149,0.233,0.226,0.226,0.127,0.081,west,3.2,No
2022/02/06,03:40,0.162,0.149,0.235,0.226,0.225,0.127,0.081,west-northwest,3.3,No
2022/02/06,03:50,0.161,0.149,0.234,0.226,0.227,0.128,0.081,west-northwest,3.2,No
2022/02/06,04:00,0.161,0.149,0.233,0.226,0.226,0.127,0.081,west-northwest,3.7,No
2022/02/06,04:10,0.162,0.149,0.234,0.225,0.226,0.128,0.082,west-northwest,4.1,No
2022/02/06,04:20,0.161,0.149,0.233,0.225,0.226,0.128,0.082,west-northwest,3.5,No
2022/02/06,04:30,0.162,0.149,0.234,0.227,0.226,0.128,0.082,northwest,2.4,No
2022/02/06,04:40,0.161,0.149,0.234,0.226,0.226,0.128,0.081,north-northwest,2.1,No
2022/02/06,04:50,0.161,0.149,0.234,0.225,0.227,0.128,0.081,west-northwest,1.3,No
2022/02/06,05:00,0.162,0.149,0.234,0.225,0.226,0.128,0.082,west,2.9,No
2022/02/06,05:10,0.162,0.150,0.234,0.225,0.226,0.128,0.082,west-northwest,5.0,No
2022/02/06,05:20,0.162,0.149,0.233,0.227,0.227,0.128,0.081,west-northwest,3.0,No
2022/02/06,05:30,0.163,0.149,0.235,0.226,0.226,0.128,0.082,northwest,1.6,No
2022/02/06,05:40,0.162,0.150,0.234,0.226,0.227,0.127,0.081,west,1.4,No
2022/02/06,05:50,0.161,0.150,0.234,0.225,0.227,0.127,0.082,west,1.8,No
2022/02/06,06:00,0.161,0.149,0.233,0.224,0.227,0.127,0.082,north-northwest,1.9,No
2022/02/06,06:10,0.162,0.148,0.234,0.226,0.227,0.128,0.081,northwest,1.8,No
2022/02/06,06:20,0.161,0.148,0.234,0.225,0.227,0.127,0.082,west,2.4,No
2022/02/06,06:30,0.162,0.148,0.234,0.225,0.226,0.127,0.081,west,6.2,No
2022/02/06,06:40,0.163,0.148,0.233,0.226,0.226,0.127,0.081,west,7.8,No
2022/02/06,06:50,0.161,0.149,0.234,0.225,0.225,0.127,0.081,west,9.7,No
2022/02/06,07:00,0.161,0.148,0.234,0.225,0.226,0.127,0.081,west,8.9,No
2022/02/06,07:10,0.160,0.148,0.233,0.225,0.225,0.127,0.081,west,9.2,No
2022/02/06,07:20,0.161,0.147,0.234,0.225,0.226,0.127,0.082,west,8.3,No
2022/02/06,07:30,0.162,0.148,0.234,0.225,0.227,0.126,0.081,west,7.9,No
2022/02/06,07:40,0.161,0.148,0.233,0.225,0.225,0.127,0.081,west,7.7,No
2022/02/06,07:50,0.160,0.149,0.234,0.225,0.226,0.128,0.082,west,8.2,No
2022/02/06,08:00,0.161,0.147,0.233,0.226,0.226,0.126,0.081,west,5.4,No
2022/02/06,08:10,0.161,0.149,0.234,0.225,0.226,0.127,0.080,west-northwest,6.7,No
2022/02/06,08:20,0.160,0.148,0.233,0.226,0.226,0.128,0.080,west,3.5,No
2022/02/06,08:30,0.162,0.149,0.233,0.223,0.225,0.128,0.080,west-northwest,6.6,No
2022/02/06,08:40,0.161,0.148,0.234,0.225,0.225,0.126,0.080,west-northwest,4.4,No
2022/02/06,08:50,0.160,0.148,0.232,0.225,0.225,0.127,0.081,west,3.8,No
2022/02/06,09:00,0.161,0.148,0.234,0.225,0.226,0.127,0.080,west,3.5,No
2022/02/06,09:10,0.160,0.149,0.233,0.224,0.226,0.127,0.081,west-northwest,4.4,No
2022/02/06,09:20,0.161,0.148,0.234,0.225,0.225,0.127,0.080,west-northwest,6.6,No
2022/02/06,09:30,0.160,0.148,0.233,0.224,0.225,0.127,0.081,west-northwest,8.1,No
2022/02/06,09:40,0.161,0.148,0.232,0.224,0.225,0.127,0.080,west-northwest,4.7,No
2022/02/06,09:50,0.160,0.147,0.232,0.225,0.226,0.127,0.081,west-northwest,8.1,No
2022/02/06,10:00,0.161,0.148,0.232,0.224,0.224,0.127,0.080,west-northwest,6.8,No
2022/02/06,10:10,0.160,0.147,0.233,0.225,0.225,0.127,0.080,west,5.7,No
2022/02/06,10:20,0.161,0.148,0.233,0.224,0.226,0.127,0.080,west-northwest,7.3,No
2022/02/06,10:30,0.160,0.148,0.233,0.225,0.225,0.127,0.080,west-northwest,8.0,No
2022/02/06,10:40,0.160,0.148,0.233,0.225,0.225,0.127,0.080,west-northwest,8.6,No
2022/02/06,10:50,0.161,0.148,0.232,0.225,0.228,0.127,0.081,west-northwest,7.9,No
2022/02/06,11:00,0.161,0.148,0.231,0.225,0.226,0.127,0.080,west-northwest,8.0,No
2022/02/06,11:10,0.161,0.147,0.232,0.224,0.225,0.126,0.081,west-northwest,8.1,No
2022/02/06,11:20,0.161,0.147,0.232,0.225,0.226,0.126,0.080,northwest,7.7,No
2022/02/06,11:30,0.160,0.148,0.232,0.223,0.226,0.127,0.081,west-northwest,7.5,No
2022/02/06,11:40,0.161,0.147,0.231,0.225,0.225,0.127,0.081,west-northwest,9.1,No
2022/02/06,11:50,0.161,0.147,0.234,0.225,0.226,0.128,0.080,west-northwest,10.7,No
2022/02/06,12:00,0.161,0.147,0.232,0.225,0.226,0.127,0.081,northwest,12.4,No
2022/02/06,12:10,0.160,0.147,0.233,0.225,0.227,0.127,0.081,northwest,11.2,No
2022/02/06,12:20,0.161,0.148,0.233,0.226,0.226,0.127,0.081,west,8.1,No
2022/02/06,12:30,0.161,0.149,0.233,0.226,0.225,0.128,0.081,west-northwest,10.2,No
2022/02/06,12:40,0.160,0.148,0.234,0.226,0.226,0.128,0.081,west-northwest,9.1,No
2022/02/06,12:50,0.161,0.147,0.233,0.225,0.227,0.127,0.080,west-northwest,9.2,No
2022/02/06,13:00,0.160,0.148,0.233,0.225,0.225,0.127,0.081,northwest,11.3,No
2022/02/06,13:10,0.160,0.149,0.234,0.225,0.227,0.127,0.080,west-northwest,10.4,No
2022/02/06,13:20,0.161,0.148,0.233,0.225,0.227,0.128,0.081,west-northwest,10.2,No
2022/02/06,13:30,0.161,0.147,0.233,0.226,0.225,0.128,0.081,west-northwest,8.7,No
2022/02/06,13:40,0.161,0.149,0.233,0.226,0.227,0.127,0.081,west-northwest,9.5,No
2022/02/06,13:50,0.161,0.148,0.235,0.224,0.226,0.128,0.080,west-northwest,12.5,No
2022/02/06,14:00,0.161,0.147,0.233,0.226,0.226,0.128,0.081,west-northwest,9.2,No
2022/02/06,14:10,0.162,0.147,0.233,0.226,0.227,0.127,0.080,west-northwest,9.4,No
2022/02/06,14:20,0.162,0.149,0.235,0.224,0.227,0.128,0.081,west-northwest,10.1,No
2022/02/06,14:30,0.161,0.149,0.234,0.225,0.228,0.127,0.081,west-northwest,8.2,No
2022/02/06,14:40,0.161,0.148,0.234,0.225,0.228,0.127,0.080,west-northwest,8.6,No
2022/02/06,14:50,0.162,0.148,0.235,0.226,0.227,0.128,0.081,west-northwest,10.7,No
2022/02/06,15:00,0.162,0.148,0.235,0.225,0.227,0.127,0.081,west-northwest,8.8,No
2022/02/06,15:10,0.161,0.148,0.234,0.226,0.227,0.128,0.081,west-northwest,10.1,No
2022/02/06,15:20,0.161,0.148,0.236,0.227,0.226,0.128,0.081,west-northwest,9.5,No
2022/02/06,15:30,0.161,0.149,0.235,0.227,0.225,0.127,0.081,west-northwest,9.0,No
2022/02/06,15:40,0.162,0.149,0.235,0.227,0.226,0.128,0.082,west-northwest,6.9,No
2022/02/06,15:50,0.161,0.149,0.235,0.226,0.227,0.127,0.081,west-northwest,6.6,No
2022/02/06,16:00,0.162,0.148,0.235,0.227,0.227,0.128,0.081,west-northwest,7.2,No
2022/02/06,16:10,0.162,0.148,0.235,0.226,0.226,0.128,0.081,northwest,3.0,No
2022/02/06,16:20,0.162,0.149,0.235,0.226,0.227,0.128,0.081,northwest,4.3,No
2022/02/06,16:30,0.162,0.149,0.234,0.227,0.226,0.128,0.082,west-northwest,7.4,No
2022/02/06,16:40,0.161,0.148,0.235,0.227,0.226,0.128,0.081,west-northwest,8.5,No
2022/02/06,16:50,0.162,0.149,0.235,0.227,0.226,0.128,0.080,northwest,2.7,No
2022/02/06,17:00,0.163,0.150,0.234,0.226,0.226,0.128,0.081,northwest,4.1,No
2022/02/06,17:10,0.162,0.149,0.234,0.224,0.226,0.128,0.081,north-northwest,5.4,No
2022/02/06,17:20,0.162,0.149,0.234,0.227,0.225,0.127,0.081,northwest,7.0,No
2022/02/06,17:30,0.162,0.147,0.234,0.227,0.226,0.128,0.081,northwest,5.9,No
2022/02/06,17:40,0.161,0.149,0.234,0.227,0.226,0.127,0.081,west-northwest,5.8,No
2022/02/06,17:50,0.162,0.150,0.235,0.227,0.226,0.127,0.081,west-northwest,6.2,No
2022/02/06,18:00,0.162,0.148,0.235,0.228,0.226,0.128,0.081,northwest,5.2,No
2022/02/06,18:10,0.162,0.148,0.234,0.226,0.226,0.127,0.081,west-northwest,6.8,No
2022/02/06,18:20,0.162,0.148,0.234,0.226,0.227,0.128,0.081,west-northwest,7.9,No
2022/02/06,18:30,0.162,0.148,0.234,0.226,0.226,0.127,0.081,west-northwest,7.9,No
2022/02/06,18:40,0.161,0.150,0.235,0.226,0.227,0.128,0.081,northwest,5.2,No
2022/02/06,18:50,0.161,0.149,0.234,0.226,0.226,0.127,0.082,west-northwest,4.1,No
2022/02/06,19:00,0.162,0.149,0.235,0.226,0.226,0.128,0.081,west-northwest,3.5,No
2022/02/06,19:10,0.162,0.148,0.234,0.226,0.226,0.128,0.081,northwest,4.0,No
2022/02/06,19:20,0.162,0.149,0.234,0.225,0.225,0.127,0.081,west-northwest,3.3,No
2022/02/06,19:30,0.162,0.149,0.235,0.227,0.227,0.128,0.081,west-northwest,4.0,No
2022/02/06,19:40,0.162,0.148,0.234,0.226,0.225,0.128,0.081,northwest,4.4,No
2022/02/06,19:50,0.160,0.149,0.234,0.226,0.226,0.127,0.082,west-northwest,5.2,No
2022/02/06,20:00,0.161,0.149,0.234,0.226,0.226,0.128,0.081,west-northwest,5.2,No
2022/02/06,20:10,0.162,0.148,0.233,0.226,0.227,0.127,0.081,west-northwest,5.1,No
2022/02/06,20:20,0.161,0.148,0.234,0.226,0.226,0.127,0.081,northwest,3.8,No
2022/02/06,20:30,0.161,0.148,0.234,0.226,0.226,0.128,0.081,northwest,3.2,No
2022/02/06,20:40,0.162,0.149,0.233,0.225,0.227,0.126,0.081,northwest,2.7,No
2022/02/06,20:50,0.162,0.148,0.234,0.226,0.227,0.127,0.081,northwest,3.2,No
2022/02/06,21:00,0.161,0.148,0.234,0.225,0.226,0.128,0.082,northwest,3.5,No
2022/02/06,21:10,0.162,0.149,0.234,0.226,0.225,0.128,0.082,west-northwest,3.3,No
2022/02/06,21:20,0.162,0.148,0.234,0.225,0.226,0.128,0.082,west,2.1,No
2022/02/06,21:30,0.161,0.149,0.234,0.226,0.226,0.128,0.081,west,3.3,No
2022/02/06,21:40,0.161,0.149,0.234,0.228,0.226,0.128,0.082,west-northwest,3.5,No
2022/02/06,21:50,0.162,0.148,0.234,0.226,0.226,0.127,0.081,west,3.3,No
2022/02/06,22:00,0.160,0.148,0.235,0.227,0.226,0.128,0.081,west,3.0,No
2022/02/06,22:10,0.161,0.148,0.234,0.227,0.226,0.127,0.081,west,3.8,No
2022/02/06,22:20,0.161,0.147,0.233,0.226,0.226,0.127,0.081,west,3.2,No
2022/02/06,22:30,0.161,0.148,0.234,0.227,0.227,0.128,0.082,west,1.8,No
2022/02/06,22:40,0.161,0.150,0.234,0.226,0.227,0.127,0.081,west,4.3,No
2022/02/06,22:50,0.161,0.148,0.234,0.225,0.226,0.128,0.081,west,4.0,No
2022/02/06,23:00,0.160,0.148,0.234,0.226,0.227,0.128,0.081,west,3.3,No
2022/02/06,23:10,0.161,0.148,0.234,0.227,0.227,0.128,0.081,west,2.9,No
2022/02/06,23:20,0.162,0.148,0.233,0.227,0.225,0.128,0.081,west-northwest,0.8,No
2022/02/06,23:30,0.161,0.149,0.233,0.225,0.225,0.127,0.081,-,CALM,No
2022/02/06,23:40,0.162,0.149,0.233,0.226,0.226,0.127,0.081,east,1.6,No
2022/02/06,23:50,0.162,0.149,0.233,0.227,0.226,0.128,0.081,east-southeast,2.1,No
